Weather History for South Lake Tahoe, CA

Change the Weather History Date:

Thursday, November 21, 2013

  Actual Average Record
Temperature  
Mean Temperature 31 °F 34 °F  
Max Temperature 36 °F 48 °F 61 °F (1995)
Min Temperature 25 °F 21 °F 4 °F (1985)
Degree Days  
Heating Degree Days 34 30  
Month to date heating degree days 488 573  
Since 1 July heating degree days 1569 1805  
Cooling Degree Days 0 0  
Month to date cooling degree days 0 0  
Year to date cooling degree days 104 31  
Moisture  
Dew Point 24 °F    
Average Humidity 71    
Maximum Humidity 89    
Minimum Humidity 53    
Precipitation  
Precipitation 0.07 in - 3.15 in (1950)
Month to date precipitation 0.39  
Year to date precipitation 7.95  
Sea Level Pressure  
Sea Level Pressure 30.01 in    
Wind  
Wind Speed 4 mph (NNE)    
Max Wind Speed 16 mph    
Max Gust Speed 25 mph    
Visibility 5 miles    
Events Fog , Rain , Snow    
T = Trace of Precipitation, MM = Missing Value Source: NWS Daily Summary

Daily Weather History Graph

Daily Weather History Graph

Search for Another Location

Airport:

Trip Planner

Search our weather history database for the weather conditions in past years. The results will help you decide how hot, cold, wet, or windy it might be!

Date:

Astronomy

Nov. 21, 2013 Rise Set
Actual Time 6:49 AM PST 4:42 PM PST
Civil Twilight 6:20 AM PST 5:10 PM PST
Nautical Twilight 5:48 AM PST 5:43 PM PST
Astronomical Twilight 5:16 AM PST 6:15 PM PST
Moon 8:23 PM PST (11/21) 9:59 AM PST (11/21)
Length of Visible Light 10h 50m
Length of Day
9h 52m
Waning Gibbous, 84% of the Moon is Illuminated
Nov 21
Waning Gibbous
Nov 25
Last Quarter
Dec 2
New
Dec 9
First Quarter
Dec 17
Full

Hourly Weather History & Observations

Time (PST) Temp. Windchill Dew Point Humidity Pressure Visibility Wind Dir Wind Speed Gust Speed Precip Events Conditions
12:07 AM 35.1 °F 29.3 °F 32.0 °F 89% 29.87 in 4.0 mi South 6.9 mph - N/A   Overcast
12:24 AM 35.1 °F 30.1 °F 32.0 °F 89% 29.87 in 6.0 mi South 5.8 mph - 0.00 in Rain Light Rain
12:27 AM 35.1 °F 31.0 °F 32.0 °F 89% 29.87 in 4.0 mi South 4.6 mph - 0.01 in Rain Light Rain
12:49 AM 35.6 °F 32.8 °F 32.0 °F 87% 29.87 in 5.0 mi South 3.5 mph - 0.02 in Rain Light Rain
12:50 AM 35.1 °F 32.2 °F 32.0 °F 89% 29.82 in 6.0 mi South 3.5 mph - 0.02 in Rain Light Rain
1:05 AM 35.1 °F - 32.0 °F 89% 29.87 in 6.0 mi Calm Calm - 0.00 in Rain Light Rain
1:53 AM 35.1 °F 32.2 °F 32.0 °F 89% 29.82 in 6.0 mi West 3.5 mph - 0.00 in Rain Light Rain
2:53 AM 35.1 °F 32.2 °F 30.9 °F 85% 29.84 in 9.0 mi Variable 3.5 mph - 0.00 in   Overcast
3:05 AM 35.1 °F 30.1 °F 27.0 °F 72% 29.89 in 6.0 mi Variable 5.8 mph - 0.00 in Snow Light Snow
3:13 AM 35.1 °F 32.2 °F 27.0 °F 72% 29.89 in 7.0 mi ENE 3.5 mph - 0.00 in Snow Light Snow
3:36 AM 34.0 °F 28.0 °F 28.0 °F 79% 29.90 in 2.5 mi ENE 6.9 mph - 0.00 in Snow Light Snow
3:41 AM 34.0 °F 27.2 °F 28.0 °F 79% 29.90 in 0.8 mi ENE 8.1 mph - 0.01 in Snow Light Snow
3:50 AM 33.8 °F 30.8 °F 28.4 °F 81% 29.90 in 0.5 mi Variable 3.5 mph - 0.02 in Fog , Snow Snow
3:53 AM 33.1 °F 30.0 °F 28.9 °F 85% 29.86 in 0.5 mi Variable 3.5 mph - 0.03 in Fog , Snow Snow
3:59 AM 33.1 °F 30.0 °F 28.9 °F 85% 29.91 in 0.5 mi Variable 3.5 mph - 0.00 in Fog , Snow Snow
4:19 AM 33.1 °F - 28.0 °F 82% 29.91 in 2.0 mi Calm Calm - 0.01 in Snow Light Snow
4:24 AM 33.1 °F - 28.9 °F 85% 29.91 in 5.0 mi Calm Calm - 0.01 in Snow Light Snow
4:38 AM 33.1 °F - 28.9 °F 85% 29.91 in 10.0 mi Calm Calm - 0.01 in   Overcast
4:53 AM 33.1 °F - 28.9 °F 85% 29.89 in 10.0 mi Calm Calm - 0.01 in   Overcast
5:12 AM 33.1 °F - 28.9 °F 85% 29.92 in 3.0 mi Calm Calm - 0.01 in Snow Light Snow
5:37 AM 33.1 °F - 28.9 °F 85% 29.93 in 5.0 mi Calm Calm - 0.01 in Snow Light Snow
5:45 AM 33.1 °F - 28.9 °F 85% 29.94 in 4.0 mi Calm Calm - 0.01 in Snow Light Snow
5:53 AM 33.1 °F - 28.9 °F 85% 29.92 in 4.0 mi Calm Calm - 0.01 in Snow Light Snow
6:10 AM 32.0 °F 26.4 °F 27.0 °F 82% 29.94 in 2.5 mi North 5.8 mph - 0.00 in Snow Light Snow
6:18 AM 32.0 °F - 28.0 °F 85% 29.95 in 4.0 mi Calm Calm - 0.00 in Snow Light Snow
6:25 AM 32.0 °F 28.7 °F 28.0 °F 85% 29.95 in 7.0 mi WNW 3.5 mph - 0.00 in Snow Light Snow
6:53 AM 32.0 °F 26.4 °F 27.0 °F 82% 29.95 in 8.0 mi Variable 5.8 mph - 0.00 in Snow Light Snow
7:39 AM 30.9 °F - 26.1 °F 82% 29.99 in 10.0 mi Calm Calm - 0.00 in   Overcast
7:53 AM 30.9 °F - 25.0 °F 79% 29.99 in 10.0 mi Calm Calm - 0.00 in   Overcast
8:53 AM 30.0 °F - 21.9 °F 72% 30.01 in 10.0 mi North - - N/A   Overcast
9:39 AM 28.9 °F - 21.9 °F 75% 30.04 in 2.5 mi Calm Calm - 0.00 in Snow Light Snow
9:53 AM 30.0 °F 24.1 °F 21.9 °F 72% 30.04 in 5.0 mi North 5.8 mph - 0.00 in   Haze
10:03 AM 30.0 °F 23.2 °F 21.9 °F 72% 30.05 in 9.0 mi North 6.9 mph - N/A   Overcast
10:28 AM 30.0 °F - 23.0 °F 75% 30.05 in 5.0 mi Calm Calm - 0.00 in Snow Light Snow
10:37 AM 30.0 °F 25.2 °F 21.9 °F 72% 30.06 in 6.0 mi Variable 4.6 mph - 0.00 in Snow Light Snow
10:48 AM 28.4 °F - 21.2 °F 74% 30.06 in 5.0 mi North - - 0.00 in Snow Light Snow
10:53 AM 28.9 °F - 21.0 °F 72% 30.07 in 5.0 mi North - - 0.00 in Snow Light Snow
11:05 AM 28.9 °F 22.8 °F 21.0 °F 72% 30.06 in 4.0 mi Variable 5.8 mph - 0.00 in Snow Light Snow
11:26 AM 28.9 °F 25.2 °F 21.9 °F 75% 30.06 in 1.8 mi NNW 3.5 mph - 0.00 in Snow Light Snow
11:53 AM 28.9 °F 23.9 °F 21.0 °F 72% 30.06 in 1.8 mi Variable 4.6 mph - 0.00 in Snow Light Snow
12:00 PM 28.9 °F 22.8 °F 21.0 °F 72% 30.05 in 2.0 mi NNE 5.8 mph - 0.00 in Snow Light Snow
12:08 PM 30.0 °F 25.2 °F 21.9 °F 72% 30.05 in 1.8 mi Variable 4.6 mph - 0.00 in Snow Light Snow
12:51 PM 30.2 °F 25.4 °F 23.0 °F 75% 30.04 in 2.5 mi Variable 4.6 mph - 0.00 in Snow Light Snow
12:52 PM 30.9 °F 24.3 °F 23.0 °F 72% 30.04 in 3.0 mi Variable 6.9 mph - 0.00 in Snow Light Snow
1:04 PM 30.9 °F 23.5 °F 23.0 °F 72% 30.04 in 7.0 mi NE 8.1 mph - 0.00 in Snow Light Snow
1:53 PM 30.0 °F 20.5 °F 21.9 °F 72% 30.06 in 4.0 mi NNE 11.5 mph - 0.00 in Snow Light Snow
2:11 PM 28.9 °F 19.8 °F 21.0 °F 72% 30.07 in 2.5 mi NNE 10.4 mph - 0.00 in Snow Light Snow
2:19 PM 28.0 °F 19.3 °F 21.0 °F 75% 30.07 in 1.8 mi NNE 9.2 mph - 0.00 in Snow Light Snow
2:30 PM 28.0 °F 22.8 °F 19.9 °F 72% 30.06 in 1.0 mi Variable 4.6 mph - 0.00 in Snow Light Snow
2:53 PM 28.0 °F - 21.0 °F 75% 30.07 in 1.0 mi North - - 0.00 in Snow Light Snow
3:53 PM 26.1 °F 16.2 °F 19.0 °F 75% 30.10 in 1.2 mi North 10.4 mph 20.7 mph 0.00 in Snow Light Snow
4:06 PM 26.1 °F 18.4 °F 18.0 °F 71% 30.09 in 0.8 mi Variable 6.9 mph 20.7 mph 0.00 in Snow Light Snow
4:29 PM 25.0 °F 15.5 °F 18.0 °F 75% 30.12 in 1.2 mi North 9.2 mph 20.7 mph 0.00 in Snow Light Snow
4:49 PM 24.8 °F 15.3 °F 17.6 °F 74% 30.14 in 2.5 mi North 9.2 mph - 0.00 in Snow Light Snow
4:53 PM 25.0 °F 15.5 °F 17.1 °F 72% 30.17 in 4.0 mi North 9.2 mph - 0.00 in Snow Light Snow
5:08 PM 25.0 °F 15.5 °F 17.1 °F 72% 30.15 in 2.5 mi North 9.2 mph 18.4 mph 0.00 in Snow Light Snow
5:15 PM 25.0 °F 15.5 °F 17.1 °F 72% 30.15 in 3.0 mi North 9.2 mph 18.4 mph 0.00 in Snow Light Snow
5:53 PM 26.1 °F 21.9 °F 18.0 °F 71% 30.17 in 4.0 mi Variable 3.5 mph - 0.00 in Snow Light Snow
6:28 PM 26.1 °F - 18.0 °F 71% 30.16 in 5.0 mi Calm Calm - 0.00 in Snow Light Snow
6:53 PM 26.1 °F 21.9 °F 18.0 °F 71% 30.19 in 9.0 mi Variable 3.5 mph - 0.00 in   Overcast
7:45 PM 27.0 °F - 17.1 °F 66% 30.16 in 10.0 mi Calm Calm - N/A   Overcast
7:53 PM 27.0 °F 20.5 °F 18.0 °F 69% 30.19 in 10.0 mi Variable 5.8 mph - N/A   Overcast
8:53 PM 28.0 °F 21.7 °F 16.0 °F 61% 30.20 in 10.0 mi Variable 5.8 mph - N/A   Overcast
9:53 PM 28.0 °F - 15.1 °F 58% 30.21 in 10.0 mi North - - N/A   Overcast
10:53 PM 28.0 °F 20.8 °F 14.0 °F 56% 30.22 in 10.0 mi NNE 6.9 mph - N/A   Overcast
11:53 PM 27.0 °F - 12.9 °F 56% 30.23 in 10.0 mi North - - N/A   Overcast